| time (UTC) | temp C | wind direction | speed KPH | gust KPH | rain 1hr cm | rain 24hr cm | rain mn cm | humidity % | barometer mb |
| 20260505041503 | 22 | 354 | 1.6 | 4.8 | 0.00 | 0.00 | 0.00 | 73 | 1015.9 |
| 20260505041004 | 22 | 354 | 0.0 | 0.0 | 0.00 | 0.00 | 0.00 | 73 | 1015.9 |
| 20260505040504 | 22 | 353 | 0.0 | 3.2 | 0.00 | 0.00 | 0.00 | 73 | 1016.0 |
| 20260505040006 | 22 | 354 | 0.0 | 4.8 | 0.00 | 0.00 | 0.00 | 73 | 1015.9 |
| 20260505035503 | 22 | 0 | 1.6 | 4.8 | 0.00 | 0.00 | 0.00 | 73 | 1015.9 |
| 20260505035004 | 22 | 0 | 0.0 | 4.8 | 0.00 | 0.00 | 0.00 | 74 | 1016.0 |
| 20260505034504 | 22 | 0 | 0.0 | 1.6 | 0.00 | 0.00 | 0.00 | 74 | 1016.0 |
| 20260505034004 | 22 | 0 | 1.6 | 4.8 | 0.00 | 0.00 | 0.00 | 73 | 1016.0 |
| 20260505033504 | 22 | 0 | 0.0 | 3.2 | 0.00 | 0.00 | 0.00 | 74 | 1016.1 |
| 20260505033006 | 22 | 0 | 1.6 | 4.8 | 0.00 | 0.00 | 0.00 | 73 | 1016.2 |
| 20260505032503 | 22 | 0 | 3.2 | 4.8 | 0.00 | 0.00 | 0.00 | 73 | 1016.2 |
| 20260505032004 | 22 | 0 | 0.0 | 4.8 | 0.00 | 0.00 | 0.00 | 73 | 1016.3 |
| 20260505031504 | 22 | 0 | 0.0 | 4.8 | 0.00 | 0.00 | 0.00 | 73 | 1016.4 |
| 20260505031003 | 22 | 0 | 1.6 | 4.8 | 0.00 | 0.00 | 0.00 | 73 | 1016.5 |
| 20260505030504 | 22 | 0 | 0.0 | 3.2 | 0.00 | 0.00 | 0.00 | 73 | 1016.5 |
| 20260505030006 | 22 | 0 | 0.0 | 4.8 | 0.00 | 0.00 | 0.00 | 73 | 1016.5 |
| 20260505025504 | 22 | 0 | 1.6 | 4.8 | 0.00 | 0.00 | 0.00 | 73 | 1016.4 |
| 20260505025003 | 22 | 0 | 3.2 | 4.8 | 0.00 | 0.00 | 0.00 | 73 | 1016.4 |
| 20260505024503 | 22 | 0 | 1.6 | 4.8 | 0.00 | 0.00 | 0.00 | 72 | 1016.4 |
| 20260505024004 | 22 | 0 | 1.6 | 4.8 | 0.00 | 0.00 | 0.00 | 72 | 1016.3 |
| 20260505023503 | 22 | 0 | 1.6 | 4.8 | 0.00 | 0.00 | 0.00 | 72 | 1016.2 |
| 20260505023006 | 22 | 58 | 1.6 | 4.8 | 0.00 | 0.00 | 0.00 | 72 | 1016.3 |
| 20260505022504 | 22 | 102 | 0.0 | 3.2 | 0.00 | 0.00 | 0.00 | 71 | 1016.2 |
| 20260505022004 | 22 | 103 | 0.0 | 4.8 | 0.00 | 0.00 | 0.00 | 71 | 1016.1 |
| 20260505021504 | 23 | 86 | 3.2 | 8.0 | 0.00 | 0.00 | 0.00 | 72 | 1016.1 |
| 20260505021003 | 23 | 123 | 1.6 | 4.8 | 0.00 | 0.00 | 0.00 | 71 | 1016.1 |
| 20260505020504 | 23 | 148 | 0.0 | 4.8 | 0.00 | 0.00 | 0.00 | 71 | 1016.0 |
| 20260505020006 | 23 | 78 | 4.8 | 8.0 | 0.00 | 0.00 | 0.00 | 71 | 1015.9 |
| 20260505015503 | 23 | 80 | 0.0 | 4.8 | 0.00 | 0.00 | 0.00 | 71 | 1015.9 |
| 20260505015004 | 23 | 80 | 1.6 | 4.8 | 0.00 | 0.00 | 0.00 | 71 | 1015.9 |
| 20260505014504 | 23 | 84 | 0.0 | 3.2 | 0.00 | 0.00 | 0.00 | 71 | 1015.8 |
| 20260505014004 | 23 | 84 | 1.6 | 11.3 | 0.00 | 0.00 | 0.00 | 72 | 1015.8 |
| 20260505013503 | 23 | 83 | 9.7 | 14.5 | 0.00 | 0.00 | 0.00 | 71 | 1015.8 |
| 20260505013006 | 23 | 86 | 1.6 | 11.3 | 0.00 | 0.00 | 0.00 | 71 | 1015.7 |
| 20260505012504 | 23 | 105 | 1.6 | 3.2 | 0.00 | 0.00 | 0.00 | 70 | 1015.6 |
| 20260505012003 | 23 | 105 | 4.8 | 14.5 | 0.00 | 0.00 | 0.00 | 70 | 1015.5 |
| 20260505011504 | 23 | 111 | 4.8 | 14.5 | 0.00 | 0.00 | 0.00 | 69 | 1015.4 |
| 20260505011004 | 23 | 104 | 3.2 | 14.5 | 0.00 | 0.00 | 0.00 | 68 | 1015.3 |
| 20260505010503 | 23 | 96 | 3.2 | 8.0 | 0.00 | 0.00 | 0.00 | 68 | 1015.3 |
| 20260505010006 | 23 | 110 | 8.0 | 14.5 | 0.00 | 0.00 | 0.00 | 67 | 1015.2 |
| 20260505005503 | 24 | 115 | 3.2 | 9.7 | 0.00 | 0.00 | 0.00 | 67 | 1015.1 |
| 20260505005004 | 24 | 163 | 3.2 | 8.0 | 0.00 | 0.00 | 0.00 | 67 | 1015.1 |
| 20260505004504 | 24 | 169 | 4.8 | 11.3 | 0.00 | 0.00 | 0.00 | 67 | 1014.9 |
| 20260505004004 | 24 | 179 | 3.2 | 9.7 | 0.00 | 0.00 | 0.00 | 67 | 1014.9 |
| 20260505003503 | 24 | 121 | 3.2 | 12.9 | 0.00 | 0.00 | 0.00 | 66 | 1014.7 |
| 20260505003006 | 24 | 92 | 3.2 | 12.9 | 0.00 | 0.00 | 0.00 | 66 | 1014.7 |
| 20260505002504 | 24 | 157 | 4.8 | 12.9 | 0.00 | 0.00 | 0.00 | 66 | 1014.6 |
| 20260505002004 | 24 | 146 | 9.7 | 16.1 | 0.00 | 0.00 | 0.00 | 65 | 1014.6 |
| 20260505001504 | 24 | 141 | 8.0 | 14.5 | 0.00 | 0.00 | 0.00 | 64 | 1014.7 |
| 20260505001004 | 25 | 177 | 8.0 | 12.9 | 0.00 | 0.00 | 0.00 | 64 | 1014.5 |
| 20260505000504 | 25 | 136 | 6.4 | 12.9 | 0.00 | 0.00 | 0.00 | 63 | 1014.6 |
| 20260505000006 | 25 | 169 | 1.6 | 8.0 | 0.00 | 0.00 | 0.00 | 62 | 1014.7 |
| 20260504235504 | 25 | 110 | 6.4 | 14.5 | 0.00 | 0.00 | 0.00 | 62 | 1014.6 |
| 20260504235004 | 25 | 144 | 4.8 | 12.9 | 0.00 | 0.00 | 0.00 | 61 | 1014.4 |
| 20260504234504 | 25 | 119 | 0.0 | 11.3 | 0.00 | 0.00 | 0.00 | 60 | 1014.4 |
| 20260504234003 | 25 | 133 | 4.8 | 12.9 | 0.00 | 0.00 | 0.00 | 60 | 1014.3 |
| 20260504233504 | 25 | 132 | 3.2 | 9.7 | 0.00 | 0.00 | 0.00 | 60 | 1014.3 |
| 20260504233006 | 25 | 158 | 4.8 | 9.7 | 0.00 | 0.00 | 0.00 | 60 | 1014.2 |
| 20260504232503 | 25 | 138 | 3.2 | 8.0 | 0.00 | 0.00 | 0.00 | 59 | 1014.1 |
| 20260504232004 | 25 | 156 | 6.4 | 11.3 | 0.00 | 0.00 | 0.00 | 60 | 1014.1 |
| 20260504231504 | 25 | 109 | 1.6 | 4.8 | 0.00 | 0.00 | 0.00 | 60 | 1014.0 |
| 20260504231003 | 25 | 92 | 4.8 | 12.9 | 0.00 | 0.00 | 0.00 | 59 | 1014.0 |
| 20260504230504 | 25 | 91 | 11.3 | 19.3 | 0.00 | 0.00 | 0.00 | 59 | 1013.9 |
| 20260504230005 | 26 | 122 | 1.6 | 11.3 | 0.00 | 0.00 | 0.00 | 59 | 1013.8 |
| 20260504225504 | 26 | 137 | 6.4 | 16.1 | 0.00 | 0.00 | 0.00 | 58 | 1013.8 |
| 20260504225004 | 26 | 150 | 3.2 | 11.3 | 0.00 | 0.00 | 0.00 | 57 | 1013.7 |
| 20260504224504 | 26 | 81 | 4.8 | 20.9 | 0.00 | 0.00 | 0.00 | 57 | 1013.7 |
| 20260504224004 | 26 | 149 | 3.2 | 11.3 | 0.00 | 0.00 | 0.00 | 56 | 1013.5 |
| 20260504223504 | 26 | 160 | 9.7 | 14.5 | 0.00 | 0.00 | 0.00 | 55 | 1013.4 |
| 20260504223006 | 26 | 148 | 4.8 | 9.7 | 0.00 | 0.00 | 0.00 | 54 | 1013.3 |
| 20260504222504 | 26 | 122 | 8.0 | 11.3 | 0.00 | 0.00 | 0.00 | 54 | 1013.2 |
| 20260504222004 | 26 | 138 | 1.6 | 16.1 | 0.00 | 0.00 | 0.00 | 54 | 1013.2 |
| 20260504221503 | 26 | 116 | 3.2 | 14.5 | 0.00 | 0.00 | 0.00 | 56 | 1013.2 |
| 20260504221004 | 26 | 184 | 8.0 | 14.5 | 0.00 | 0.00 | 0.00 | 59 | 1013.1 |
| 20260504220504 | 25 | 160 | 6.4 | 14.5 | 0.00 | 0.00 | 0.00 | 64 | 1013.0 |
| 20260504220006 | 25 | 0 | 1.6 | 9.7 | 0.00 | 0.00 | 0.00 | 67 | 1012.9 |
| 20260504215504 | 25 | 277 | 4.8 | 11.3 | 0.00 | 0.00 | 0.00 | 68 | 1012.9 |
| 20260504215004 | 25 | 262 | 4.8 | 14.5 | 0.00 | 0.00 | 0.00 | 66 | 1012.9 |
| 20260504214504 | 25 | 211 | 4.8 | 11.3 | 0.00 | 0.00 | 0.00 | 66 | 1012.9 |
| 20260504214004 | 26 | 252 | 6.4 | 11.3 | 0.00 | 0.00 | 0.00 | 64 | 1012.9 |
| 20260504213504 | 26 | 194 | 3.2 | 11.3 | 0.00 | 0.00 | 0.00 | 61 | 1012.8 |
| 20260504213006 | 26 | 253 | 4.8 | 12.9 | 0.00 | 0.00 | 0.00 | 61 | 1012.7 |
| 20260504212503 | 26 | 214 | 3.2 | 14.5 | 0.00 | 0.00 | 0.00 | 61 | 1012.8 |
| 20260504212004 | 26 | 210 | 6.4 | 12.9 | 0.00 | 0.00 | 0.00 | 62 | 1012.7 |
| 20260504211504 | 26 | 226 | 4.8 | 12.9 | 0.00 | 0.00 | 0.00 | 61 | 1012.6 |
| 20260504211004 | 26 | 234 | 9.7 | 19.3 | 0.00 | 0.00 | 0.00 | 58 | 1012.6 |
| 20260504210503 | 26 | 270 | 9.7 | 22.5 | 0.00 | 0.00 | 0.00 | 62 | 1012.5 |
| 20260504210006 | 27 | 201 | 8.0 | 14.5 | 0.00 | 0.00 | 0.00 | 57 | 1012.6 |
| 20260504205503 | 28 | 217 | 9.7 | 19.3 | 0.00 | 0.00 | 0.00 | 49 | 1012.7 |
| 20260504205003 | 28 | 135 | 9.7 | 16.1 | 0.00 | 0.00 | 0.00 | 43 | 1012.7 |
| 20260504204503 | 28 | 195 | 9.7 | 19.3 | 0.00 | 0.00 | 0.00 | 42 | 1012.7 |
| 20260504204004 | 28 | 162 | 8.0 | 16.1 | 0.00 | 0.00 | 0.00 | 43 | 1012.7 |
| 20260504203504 | 28 | 121 | 8.0 | 16.1 | 0.00 | 0.00 | 0.00 | 44 | 1012.7 |
| 20260504203006 | 28 | 110 | 4.8 | 14.5 | 0.00 | 0.00 | 0.00 | 44 | 1012.8 |
| 20260504202503 | 27 | 164 | 6.4 | 19.3 | 0.00 | 0.00 | 0.00 | 44 | 1012.9 |
| 20260504202004 | 28 | 157 | 9.7 | 22.5 | 0.00 | 0.00 | 0.00 | 44 | 1012.8 |
| 20260504201504 | 28 | 164 | 6.4 | 12.9 | 0.00 | 0.00 | 0.00 | 44 | 1012.8 |
| 20260504201004 | 28 | 128 | 6.4 | 19.3 | 0.00 | 0.00 | 0.00 | 43 | 1013.0 |
| 20260504200504 | 28 | 156 | 11.3 | 20.9 | 0.00 | 0.00 | 0.00 | 43 | 1013.0 |
| 20260504200006 | 28 | 140 | 4.8 | 20.9 | 0.00 | 0.00 | 0.00 | 43 | 1013.2 |
| 20260504195504 | 28 | 170 | 8.0 | 20.9 | 0.00 | 0.00 | 0.00 | 42 | 1013.2 |
| 20260504195003 | 28 | 157 | 8.0 | 22.5 | 0.00 | 0.00 | 0.00 | 42 | 1013.2 |
| 20260504194503 | 28 | 98 | 9.7 | 20.9 | 0.00 | 0.00 | 0.00 | 41 | 1013.3 |
| 20260504194004 | 28 | 183 | 3.2 | 11.3 | 0.00 | 0.00 | 0.00 | 41 | 1013.3 |
| 20260504193504 | 28 | 172 | 12.9 | 20.9 | 0.00 | 0.00 | 0.00 | 40 | 1013.4 |
| 20260504193006 | 28 | 158 | 11.3 | 19.3 | 0.00 | 0.00 | 0.00 | 41 | 1013.5 |
| 20260504192503 | 28 | 150 | 11.3 | 19.3 | 0.00 | 0.00 | 0.00 | 40 | 1013.6 |
| 20260504192004 | 28 | 111 | 4.8 | 19.3 | 0.00 | 0.00 | 0.00 | 42 | 1013.7 |
| 20260504191503 | 28 | 107 | 9.7 | 19.3 | 0.00 | 0.00 | 0.00 | 41 | 1013.7 |
| 20260504191003 | 28 | 155 | 4.8 | 20.9 | 0.00 | 0.00 | 0.00 | 42 | 1013.8 |
| 20260504190504 | 28 | 99 | 6.4 | 19.3 | 0.00 | 0.00 | 0.00 | 42 | 1013.8 |
| 20260504190006 | 28 | 74 | 6.4 | 19.3 | 0.00 | 0.00 | 0.00 | 41 | 1013.9 |
| 20260504185504 | 28 | 92 | 14.5 | 27.4 | 0.00 | 0.00 | 0.00 | 40 | 1013.9 |
| 20260504185004 | 28 | 146 | 6.4 | 19.3 | 0.00 | 0.00 | 0.00 | 39 | 1014.0 |
| 20260504184503 | 28 | 166 | 9.7 | 19.3 | 0.00 | 0.00 | 0.00 | 38 | 1014.0 |
| 20260504184004 | 28 | 120 | 6.4 | 14.5 | 0.00 | 0.00 | 0.00 | 40 | 1014.0 |
| 20260504183504 | 28 | 202 | 3.2 | 19.3 | 0.00 | 0.00 | 0.00 | 41 | 1014.0 |
| 20260504183006 | 28 | 133 | 6.4 | 16.1 | 0.00 | 0.00 | 0.00 | 41 | 1014.1 |
| 20260504182503 | 28 | 144 | 9.7 | 16.1 | 0.00 | 0.00 | 0.00 | 40 | 1014.3 |
| 20260504182004 | 28 | 154 | 8.0 | 19.3 | 0.00 | 0.00 | 0.00 | 40 | 1014.3 |
| 20260504181503 | 28 | 166 | 8.0 | 14.5 | 0.00 | 0.00 | 0.00 | 41 | 1014.3 |
| 20260504181004 | 28 | 178 | 3.2 | 16.1 | 0.00 | 0.00 | 0.00 | 41 | 1014.4 |
| 20260504180504 | 28 | 118 | 8.0 | 25.7 | 0.00 | 0.00 | 0.00 | 40 | 1014.5 |
| 20260504180007 | 28 | 72 | 6.4 | 16.1 | 0.00 | 0.00 | 0.00 | 38 | 1014.6 |
| 20260504175503 | 28 | 80 | 6.4 | 22.5 | 0.00 | 0.00 | 0.00 | 38 | 1014.6 |
| 20260504175004 | 28 | 140 | 9.7 | 19.3 | 0.00 | 0.00 | 0.00 | 39 | 1014.6 |
| 20260504174504 | 28 | 78 | 8.0 | 14.5 | 0.00 | 0.00 | 0.00 | 39 | 1014.7 |
| 20260504174004 | 28 | 91 | 12.9 | 25.7 | 0.00 | 0.00 | 0.00 | 38 | 1014.9 |
| 20260504173504 | 28 | 137 | 4.8 | 22.5 | 0.00 | 0.00 | 0.00 | 38 | 1014.9 |
| 20260504173006 | 28 | 141 | 14.5 | 20.9 | 0.00 | 0.00 | 0.00 | 37 | 1014.9 |
| 20260504172504 | 28 | 194 | 1.6 | 11.3 | 0.00 | 0.00 | 0.00 | 40 | 1015.0 |
| 20260504172004 | 28 | 126 | 4.8 | 11.3 | 0.00 | 0.00 | 0.00 | 40 | 1015.1 |
| 20260504171503 | 28 | 89 | 6.4 | 16.1 | 0.00 | 0.00 | 0.00 | 39 | 1015.2 |
| 20260504171004 | 27 | 110 | 9.7 | 16.1 | 0.00 | 0.00 | 0.00 | 40 | 1015.3 |
| 20260504170504 | 27 | 159 | 4.8 | 16.1 | 0.00 | 0.00 | 0.00 | 42 | 1015.5 |
| 20260504151004 | 25 | 171 | 9.7 | 16.1 | 0.00 | 0.00 | 0.00 | 64 | 1016.9 |
| 20260504150504 | 25 | 152 | 8.0 | 19.3 | 0.00 | 0.00 | 0.00 | 65 | 1016.9 |
| 20260504141004 | 23 | 133 | 9.7 | 16.1 | 0.00 | 0.00 | 0.00 | 70 | 1017.4 |
| 20260504140503 | 23 | 111 | 12.9 | 20.9 | 0.00 | 0.00 | 0.00 | 70 | 1017.4 |
| 20260504130504 | 22 | 127 | 4.8 | 9.7 | 0.00 | 0.00 | 0.00 | 76 | 1017.5 |
| 20260504110503 | 19 | 46 | 3.2 | 4.8 | 0.00 | 0.00 | 0.00 | 86 | 1016.4 |
| 20260504100504 | 19 | 44 | 0.0 | 0.0 | 0.00 | 0.00 | 0.00 | 84 | 1015.8 |
| 20260504082003 | 20 | 24 | 4.8 | 8.0 | 0.00 | 0.00 | 0.00 | 84 | 1015.0 |
| 20260504081504 | 20 | 39 | 3.2 | 4.8 | 0.00 | 0.00 | 0.00 | 85 | 1015.0 |
| 20260504081004 | 20 | 39 | 1.6 | 4.8 | 0.00 | 0.00 | 0.00 | 84 | 1015.0 |
| 20260504080503 | 20 | 41 | 4.8 | 9.7 | 0.00 | 0.00 | 0.00 | 84 | 1014.9 |
| 20260504050503 | 20 | 53 | 3.2 | 4.8 | 0.00 | 0.00 | 0.00 | 86 | 1015.9 |